Back to Top

Language: 

My Weather Underground Personal Weather Station Historical Data with Graphs...

Delerius Weather Station Historical Data
Daily Summary for October 3, 2017 Units:  Metric    English   Both
« Previous Day
Next Day »
Daily Weekly Monthly Yearly Custom
  High: Low: Average:
Temperature: 13.7 °C 10.2 °C 11.5 °C
Dew Point: 9.2 °C 6.2 °C 7.9 °C
Humidity: 87 % 68 % 79 %
Wind Speed: 30.6 km/h 4.8 km/h 17.2 km/h
Wind Gust: 48.3 km/h - -
Wind:- - WNW
Pressure: 1022.2 hPa 1012.8 hPa -
Precipitation: 0 mm    
Historical Graphs
 
 
Tabular Data for October 3, 2017
Time Temperature Dew Point Pressure Wind Wind Speed Wind Gust Humidity Rainfall Rate (Hourly) solar Conditions
00:04 10.7 °C 8.3 °C 1012.8 hPa WNW 16.1 km/h 33.8 km/h 85 % 0 mm 0 W/m2
00:09 10.7 °C 8.3 °C 1012.8 hPa WNW 17.7 km/h 35.4 km/h 85 % 0 mm 0 W/m2
00:14 10.7 °C 8.3 °C 1013.1 hPa West 19.3 km/h 35.4 km/h 85 % 0 mm 0 W/m2
00:19 10.7 °C 8.3 °C 1013.1 hPa WNW 16.1 km/h 33.8 km/h 85 % 0 mm 0 W/m2
00:24 10.7 °C 8.3 °C 1013.1 hPa WNW 17.7 km/h 37 km/h 85 % 0 mm 0 W/m2
00:29 10.7 °C 8.3 °C 1013.1 hPa WNW 22.5 km/h 37 km/h 85 % 0 mm 0 W/m2
00:34 10.7 °C 8.3 °C 1013.1 hPa WNW 22.5 km/h 37 km/h 85 % 0 mm 0 W/m2
00:39 10.7 °C 8.3 °C 1013.1 hPa WNW 20.9 km/h 37 km/h 85 % 0 mm 0 W/m2
00:44 10.7 °C 8.3 °C 1013.1 hPa WNW 20.9 km/h 33.8 km/h 85 % 0 mm 0 W/m2
00:49 10.7 °C 8.3 °C 1013.1 hPa WNW 19.3 km/h 33.8 km/h 85 % 0 mm 0 W/m2
00:54 10.6 °C 8.2 °C 1013.1 hPa WNW 19.3 km/h 38.6 km/h 85 % 0 mm 0 W/m2
00:59 10.6 °C 8.2 °C 1013.1 hPa WNW 19.3 km/h 38.6 km/h 85 % 0 mm 0 W/m2
01:04 10.6 °C 8.2 °C 1013.1 hPa WNW 16.1 km/h 33.8 km/h 85 % 0 mm 0 W/m2
01:09 10.6 °C 8.2 °C 1013.1 hPa WNW 16.1 km/h 29 km/h 85 % 0 mm 0 W/m2
01:14 10.5 °C 8.1 °C 1013.4 hPa WNW 14.5 km/h 29 km/h 85 % 0 mm 0 W/m2
01:19 10.5 °C 8.1 °C 1013.1 hPa WNW 16.1 km/h 29 km/h 85 % 0 mm 0 W/m2
01:24 10.5 °C 8.1 °C 1013.4 hPa WNW 17.7 km/h 29 km/h 85 % 0 mm 0 W/m2
01:29 10.5 °C 8.1 °C 1013.4 hPa WNW 17.7 km/h 33.8 km/h 85 % 0 mm 0 W/m2
01:34 10.5 °C 8.3 °C 1013.8 hPa WNW 19.3 km/h 33.8 km/h 86 % 0 mm 0 W/m2
01:39 10.5 °C 8.3 °C 1013.8 hPa WNW 17.7 km/h 33.8 km/h 86 % 0 mm 0 W/m2
01:44 10.5 °C 8.1 °C 1013.8 hPa WNW 17.7 km/h 37 km/h 85 % 0 mm 0 W/m2
01:49 10.5 °C 8.1 °C 1013.8 hPa WNW 16.1 km/h 37 km/h 85 % 0 mm 0 W/m2
01:55 10.6 °C 8.3 °C 1013.8 hPa WNW 17.7 km/h 29 km/h 86 % 0 mm 0 W/m2
02:00 10.6 °C 8.2 °C 1013.8 hPa West 19.3 km/h 29 km/h 85 % 0 mm 0 W/m2
02:05 10.7 °C 8.3 °C 1013.8 hPa West 20.9 km/h 38.6 km/h 85 % 0 mm 0 W/m2
02:10 10.8 °C 8.4 °C 1014.1 hPa West 22.5 km/h 38.6 km/h 85 % 0 mm 0 W/m2
02:15 10.8 °C 8.4 °C 1014.1 hPa WNW 20.9 km/h 37 km/h 85 % 0 mm 0 W/m2
02:20 10.8 °C 8.4 °C 1014.1 hPa WNW 19.3 km/h 33.8 km/h 85 % 0 mm 0 W/m2
02:25 10.8 °C 8.2 °C 1014.1 hPa WNW 19.3 km/h 32.2 km/h 84 % 0 mm 0 W/m2
02:30 10.8 °C 8.4 °C 1014.1 hPa WNW 17.7 km/h 32.2 km/h 85 % 0 mm 0 W/m2
02:35 10.8 °C 8.4 °C 1014.4 hPa WNW 17.7 km/h 33.8 km/h 85 % 0 mm 0 W/m2
02:40 10.8 °C 8.4 °C 1014.4 hPa WNW 17.7 km/h 33.8 km/h 85 % 0 mm 0 W/m2
02:45 10.8 °C 8.4 °C 1014.8 hPa West 17.7 km/h 35.4 km/h 85 % 0 mm 0 W/m2
02:50 10.9 °C 8.5 °C 1014.8 hPa WNW 22.5 km/h 38.6 km/h 85 % 0 mm 0 W/m2
02:55 10.9 °C 8.3 °C 1014.8 hPa WNW 20.9 km/h 38.6 km/h 84 % 0 mm 0 W/m2
03:00 10.9 °C 8.5 °C 1014.8 hPa WNW 17.7 km/h 33.8 km/h 85 % 0 mm 0 W/m2
03:05 10.9 °C 8.5 °C 1014.8 hPa WNW 17.7 km/h 30.6 km/h 85 % 0 mm 0 W/m2
03:10 10.9 °C 8.5 °C 1014.8 hPa WNW 20.9 km/h 37 km/h 85 % 0 mm 0 W/m2
03:15 10.8 °C 8.4 °C 1014.8 hPa WNW 20.9 km/h 37 km/h 85 % 0 mm 0 W/m2
03:20 10.8 °C 8.4 °C 1014.4 hPa WNW 19.3 km/h 35.4 km/h 85 % 0 mm 0 W/m2
03:25 10.8 °C 8.4 °C 1014.4 hPa WNW 19.3 km/h 35.4 km/h 85 % 0 mm 0 W/m2
03:30 10.8 °C 8.6 °C 1014.8 hPa WNW 20.9 km/h 35.4 km/h 86 % 0 mm 0 W/m2
03:35 10.8 °C 8.6 °C 1014.4 hPa WNW 20.9 km/h 38.6 km/h 86 % 0 mm 0 W/m2
03:40 10.8 °C 8.6 °C 1014.8 hPa WNW 20.9 km/h 38.6 km/h 86 % 0 mm 0 W/m2
03:45 10.8 °C 8.6 °C 1014.8 hPa WNW 20.9 km/h 33.8 km/h 86 % 0 mm 0 W/m2
03:50 10.7 °C 8.4 °C 1014.8 hPa WNW 20.9 km/h 41.8 km/h 86 % 0 mm 0 W/m2
03:55 10.7 °C 8.3 °C 1015.1 hPa WNW 20.9 km/h 41.8 km/h 85 % 0 mm 0 W/m2
04:00 10.7 °C 8.3 °C 1015.1 hPa WNW 19.3 km/h 32.2 km/h 85 % 0 mm 0 W/m2
04:05 10.7 °C 8.3 °C 1014.8 hPa WNW 19.3 km/h 35.4 km/h 85 % 0 mm 0 W/m2
04:10 10.6 °C 8.2 °C 1014.8 hPa WNW 20.9 km/h 43.5 km/h 85 % 0 mm 0 W/m2
04:16 10.6 °C 8.2 °C 1015.1 hPa WNW 20.9 km/h 43.5 km/h 85 % 0 mm 0 W/m2
04:21 10.6 °C 8.3 °C 1015.1 hPa WNW 17.7 km/h 38.6 km/h 86 % 0 mm 0 W/m2
04:22 10.6 °C 8.3 °C 1015.1 hPa WNW 17.7 km/h 33.8 km/h 86 % 0 mm 0 W/m2
04:23 10.6 °C 8.3 °C 1015.1 hPa WNW 16.1 km/h 32.2 km/h 86 % 0 mm 0 W/m2
04:25 10.6 °C 8.3 °C 1015.1 hPa WNW 16.1 km/h 25.7 km/h 86 % 0 mm 0 W/m2
04:27 10.6 °C 8.3 °C 1015.1 hPa WNW 17.7 km/h 37 km/h 86 % 0 mm 0 W/m2
04:32 10.6 °C 8.3 °C 1015.1 hPa WNW 19.3 km/h 37 km/h 86 % 0 mm 0 W/m2
04:37 10.6 °C 8.3 °C 1015.1 hPa WNW 19.3 km/h 37 km/h 86 % 0 mm 0 W/m2
04:42 10.6 °C 8.3 °C 1015.1 hPa WNW 20.9 km/h 37 km/h 86 % 0 mm 0 W/m2
04:47 10.5 °C 8.4 °C 1015.1 hPa WNW 20.9 km/h 37 km/h 87 % 0 mm 0 W/m2
04:52 10.5 °C 8.3 °C 1015.1 hPa WNW 20.9 km/h 40.2 km/h 86 % 0 mm 0 W/m2
04:57 10.6 °C 8.3 °C 1015.5 hPa WNW 24.1 km/h 41.8 km/h 86 % 0 mm 0 W/m2
05:02 10.7 °C 8.3 °C 1015.5 hPa WNW 24.1 km/h 41.8 km/h 85 % 0 mm 0 W/m2
05:07 10.7 °C 8.3 °C 1015.5 hPa WNW 22.5 km/h 41.8 km/h 85 % 0 mm 0 W/m2
05:12 10.7 °C 8.1 °C 1015.5 hPa WNW 20.9 km/h 40.2 km/h 84 % 0 mm 0 W/m2
05:17 10.7 °C 8.1 °C 1015.5 hPa WNW 20.9 km/h 40.2 km/h 84 % 0 mm 0 W/m2
05:22 10.7 °C 8.1 °C 1015.5 hPa WNW 20.9 km/h 40.2 km/h 84 % 0 mm 0 W/m2
05:27 10.7 °C 8.1 °C 1015.5 hPa WNW 20.9 km/h 35.4 km/h 84 % 0 mm 0 W/m2
05:32 10.7 °C 8.1 °C 1015.5 hPa WNW 17.7 km/h 35.4 km/h 84 % 0 mm 0 W/m2
05:37 10.6 °C 8 °C 1015.5 hPa WNW 12.9 km/h 32.2 km/h 84 % 0 mm 0 W/m2
05:42 10.6 °C 8 °C 1015.5 hPa WNW 14.5 km/h 32.2 km/h 84 % 0 mm 0 W/m2
05:47 10.6 °C 8 °C 1015.8 hPa WNW 17.7 km/h 32.2 km/h 84 % 0 mm 0 W/m2
05:53 10.7 °C 8.1 °C 1015.8 hPa WNW 19.3 km/h 33.8 km/h 84 % 0 mm 0 W/m2
05:58 10.7 °C 7.9 °C 1015.5 hPa WNW 20.9 km/h 33.8 km/h 83 % 0 mm 0 W/m2
06:03 10.7 °C 7.9 °C 1015.8 hPa WNW 20.9 km/h 33.8 km/h 83 % 0 mm 0 W/m2
06:08 10.7 °C 8.1 °C 1015.8 hPa WNW 19.3 km/h 32.2 km/h 84 % 0 mm 0 W/m2
06:13 10.6 °C 8 °C 1015.8 hPa WNW 20.9 km/h 35.4 km/h 84 % 0 mm 0 W/m2
06:18 10.6 °C 8 °C 1015.8 hPa WNW 22.5 km/h 38.6 km/h 84 % 0 mm 0 W/m2
06:23 10.6 °C 8 °C 1015.8 hPa WNW 24.1 km/h 38.6 km/h 84 % 0 mm 0 W/m2
06:28 10.6 °C 8 °C 1015.8 hPa WNW 24.1 km/h 38.6 km/h 84 % 0 mm 0 W/m2
06:33 10.5 °C 7.9 °C 1016.1 hPa WNW 22.5 km/h 38.6 km/h 84 % 0 mm 0 W/m2
06:38 10.5 °C 7.9 °C 1016.1 hPa WNW 22.5 km/h 37 km/h 84 % 0 mm 0 W/m2
06:43 10.5 °C 7.9 °C 1016.1 hPa WNW 22.5 km/h 43.5 km/h 84 % 0 mm 0 W/m2
06:48 10.4 °C 7.8 °C 1016.1 hPa WNW 22.5 km/h 43.5 km/h 84 % 0 mm 0 W/m2
06:53 10.4 °C 8 °C 1016.5 hPa WNW 20.9 km/h 38.6 km/h 85 % 0 mm 0 W/m2
06:58 10.3 °C 7.9 °C 1016.5 hPa WNW 19.3 km/h 40.2 km/h 85 % 0 mm 0 W/m2
06:59 10.3 °C 7.9 °C 1016.5 hPa WNW 19.3 km/h 40.2 km/h 85 % 0 mm 0 W/m2
07:04 10.2 °C 7.8 °C 1016.8 hPa WNW 19.3 km/h 35.4 km/h 85 % 0 mm 5 W/m2
07:09 10.2 °C 7.8 °C 1016.8 hPa WNW 17.7 km/h 35.4 km/h 85 % 0 mm 5 W/m2
07:14 10.3 °C 8.1 °C 1016.8 hPa WNW 17.7 km/h 32.2 km/h 86 % 0 mm 11 W/m2
07:19 10.3 °C 8.1 °C 1016.8 hPa WNW 17.7 km/h 33.8 km/h 86 % 0 mm 11 W/m2
07:24 10.3 °C 8.1 °C 1016.8 hPa WNW 19.3 km/h 38.6 km/h 86 % 0 mm 12 W/m2
07:29 10.3 °C 8.1 °C 1016.5 hPa WNW 19.3 km/h 38.6 km/h 86 % 0 mm 14 W/m2
07:34 10.3 °C 8.1 °C 1016.8 hPa WNW 19.3 km/h 40.2 km/h 86 % 0 mm 18 W/m2
07:39 10.3 °C 7.9 °C 1016.8 hPa WNW 24.1 km/h 43.5 km/h 85 % 0 mm 21 W/m2
07:44 10.3 °C 7.9 °C 1017.2 hPa WNW 22.5 km/h 43.5 km/h 85 % 0 mm 25 W/m2
07:50 10.3 °C 7.9 °C 1017.2 hPa WNW 17.7 km/h 30.6 km/h 85 % 0 mm 53 W/m2
07:55 10.4 °C 8 °C 1017.5 hPa WNW 16.1 km/h 33.8 km/h 85 % 0 mm 76 W/m2
08:00 10.6 °C 8.2 °C 1017.5 hPa WNW 17.7 km/h 33.8 km/h 85 % 0 mm 81 W/m2
08:05 10.7 °C 8.3 °C 1017.5 hPa WNW 19.3 km/h 33.8 km/h 85 % 0 mm 134 W/m2
08:10 10.8 °C 8.4 °C 1017.5 hPa WNW 16.1 km/h 33.8 km/h 85 % 0 mm 37 W/m2
08:15 10.9 °C 8.3 °C 1017.8 hPa WNW 19.3 km/h 48.3 km/h 84 % 0 mm 21 W/m2
08:20 10.9 °C 8.3 °C 1017.8 hPa WNW 22.5 km/h 48.3 km/h 84 % 0 mm 26 W/m2
08:25 10.8 °C 8 °C 1017.8 hPa WNW 20.9 km/h 35.4 km/h 83 % 0 mm 32 W/m2
08:30 10.8 °C 8 °C 1018.2 hPa WNW 20.9 km/h 35.4 km/h 83 % 0 mm 40 W/m2
08:35 10.8 °C 7.8 °C 1018.2 hPa WNW 19.3 km/h 35.4 km/h 82 % 0 mm 39 W/m2
08:40 10.8 °C 7.8 °C 1018.2 hPa WNW 17.7 km/h 33.8 km/h 82 % 0 mm 88 W/m2
08:45 10.8 °C 7.8 °C 1018.5 hPa WNW 17.7 km/h 38.6 km/h 82 % 0 mm 67 W/m2
08:50 10.9 °C 7.9 °C 1018.5 hPa WNW 20.9 km/h 38.6 km/h 82 % 0 mm 49 W/m2
08:55 10.9 °C 7.9 °C 1018.5 hPa WNW 22.5 km/h 40.2 km/h 82 % 0 mm 53 W/m2
09:00 10.9 °C 8.1 °C 1018.5 hPa NW 20.9 km/h 40.2 km/h 83 % 0 mm 60 W/m2
09:05 10.9 °C 8.1 °C 1018.8 hPa WNW 19.3 km/h 32.2 km/h 83 % 0 mm 69 W/m2
09:10 10.9 °C 8.1 °C 1018.8 hPa WNW 17.7 km/h 32.2 km/h 83 % 0 mm 44 W/m2
09:15 10.9 °C 8.1 °C 1018.8 hPa WNW 16.1 km/h 33.8 km/h 83 % 0 mm 62 W/m2
09:20 11.1 °C 8.3 °C 1018.8 hPa WNW 16.1 km/h 33.8 km/h 83 % 0 mm 104 W/m2
09:25 11.3 °C 8.5 °C 1019.2 hPa WNW 16.1 km/h 33.8 km/h 83 % 0 mm 146 W/m2
09:30 11.5 °C 8.6 °C 1019.2 hPa WNW 14.5 km/h 33.8 km/h 82 % 0 mm 67 W/m2
09:35 11.6 °C 8.4 °C 1019.5 hPa WNW 16.1 km/h 35.4 km/h 81 % 0 mm 91 W/m2
09:40 11.6 °C 8.4 °C 1019.5 hPa WNW 16.1 km/h 35.4 km/h 81 % 0 mm 104 W/m2
09:45 11.7 °C 8.2 °C 1019.9 hPa WNW 17.7 km/h 35.4 km/h 79 % 0 mm 496 W/m2
09:50 11.9 °C 8.4 °C 1019.9 hPa WNW 16.1 km/h 35.4 km/h 79 % 0 mm 183 W/m2
09:55 12 °C 8.3 °C 1019.9 hPa WNW 12.9 km/h 25.7 km/h 78 % 0 mm 74 W/m2
10:00 12 °C 8.1 °C 1019.9 hPa WNW 16.1 km/h 32.2 km/h 77 % 0 mm 105 W/m2
10:05 11.9 °C 8 °C 1019.9 hPa WNW 17.7 km/h 35.4 km/h 77 % 0 mm 111 W/m2
10:10 11.8 °C 7.9 °C 1020.2 hPa WNW 17.7 km/h 35.4 km/h 77 % 0 mm 132 W/m2
10:16 11.8 °C 7.9 °C 1020.2 hPa WNW 19.3 km/h 35.4 km/h 77 % 0 mm 148 W/m2
10:21 11.8 °C 7.9 °C 1020.2 hPa WNW 17.7 km/h 32.2 km/h 77 % 0 mm 167 W/m2
10:25 11.8 °C 7.9 °C 1020.2 hPa WNW 14.5 km/h 32.2 km/h 77 % 0 mm 257 W/m2
10:30 12 °C 8.1 °C 1020.5 hPa WNW 12.9 km/h 30.6 km/h 77 % 0 mm 292 W/m2
10:35 12.2 °C 8.1 °C 1020.5 hPa WNW 12.9 km/h 30.6 km/h 76 % 0 mm 278 W/m2
10:41 12.4 °C 8.1 °C 1020.5 hPa WNW 16.1 km/h 33.8 km/h 75 % 0 mm 499 W/m2
10:45 12.7 °C 8.4 °C 1020.5 hPa WNW 19.3 km/h 37 km/h 75 % 0 mm 515 W/m2
10:50 12.9 °C 8.6 °C 1020.5 hPa WNW 20.9 km/h 41.8 km/h 75 % 0 mm 499 W/m2
10:56 13.1 °C 8.6 °C 1020.2 hPa WNW 22.5 km/h 41.8 km/h 74 % 0 mm 519 W/m2
11:01 13.2 °C 8.7 °C 1020.2 hPa WNW 25.7 km/h 45.1 km/h 74 % 0 mm 552 W/m2
11:06 13.3 °C 8.6 °C 1020.5 hPa WNW 30.6 km/h 48.3 km/h 73 % 0 mm 536 W/m2
11:11 13.4 °C 8.8 °C 1020.5 hPa WNW 29 km/h 48.3 km/h 74 % 0 mm 573 W/m2
11:16 13.7 °C 9.2 °C 1020.9 hPa WNW 24.1 km/h 43.5 km/h 74 % 0 mm 557 W/m2
11:21 13.7 °C 8.7 °C 1020.9 hPa WNW 24.1 km/h 43.5 km/h 72 % 0 mm 121 W/m2
11:26 13.3 °C 8.9 °C 1020.9 hPa WNW 22.5 km/h 40.2 km/h 75 % 0 mm 77 W/m2
11:31 12.8 °C 9.1 °C 1021.2 hPa WNW 19.3 km/h 35.4 km/h 78 % 0 mm 58 W/m2
11:36 12.4 °C 9.2 °C 1021.2 hPa WNW 17.7 km/h 33.8 km/h 81 % 0 mm 176 W/m2
11:41 12.2 °C 9.2 °C 1021.2 hPa WNW 14.5 km/h 25.7 km/h 82 % 0 mm 225 W/m2
11:46 12.1 °C 8.9 °C 1021.2 hPa WNW 16.1 km/h 25.7 km/h 81 % 0 mm 197 W/m2
11:51 12.1 °C 8.9 °C 1021.2 hPa WNW 17.7 km/h 35.4 km/h 81 % 0 mm 325 W/m2
11:56 12.1 °C 8.8 °C 1021.2 hPa WNW 19.3 km/h 35.4 km/h 80 % 0 mm 142 W/m2
12:01 12.2 °C 8.7 °C 1021.2 hPa WNW 19.3 km/h 37 km/h 79 % 0 mm 204 W/m2
12:06 12.2 °C 8.7 °C 1020.9 hPa WNW 16.1 km/h 37 km/h 79 % 0 mm 199 W/m2
12:11 12.3 °C 8.6 °C 1020.9 hPa WNW 16.1 km/h 29 km/h 78 % 0 mm 142 W/m2
12:16 12.3 °C 8.4 °C 1021.2 hPa WNW 16.1 km/h 29 km/h 77 % 0 mm 135 W/m2
12:21 12.4 °C 8.3 °C 1021.2 hPa WNW 14.5 km/h 29 km/h 76 % 0 mm 274 W/m2
12:26 12.6 °C 8.5 °C 1021.2 hPa WNW 12.9 km/h 29 km/h 76 % 0 mm 561 W/m2
12:31 12.9 °C 8.6 °C 1021.2 hPa West 11.3 km/h 20.9 km/h 75 % 0 mm 162 W/m2
12:36 13.1 °C 8.4 °C 1021.2 hPa West 12.9 km/h 25.7 km/h 73 % 0 mm 98 W/m2
12:41 13.1 °C 8.2 °C 1021.6 hPa West 16.1 km/h 30.6 km/h 72 % 0 mm 83 W/m2
12:46 13.1 °C 8.2 °C 1021.6 hPa WNW 19.3 km/h 40.2 km/h 72 % 0 mm 130 W/m2
12:51 13 °C 8.1 °C 1021.6 hPa WNW 22.5 km/h 40.2 km/h 72 % 0 mm 120 W/m2
12:56 12.9 °C 8.2 °C 1021.6 hPa WNW 22.5 km/h 41.8 km/h 73 % 0 mm 132 W/m2
13:01 12.8 °C 8.1 °C 1021.6 hPa WNW 22.5 km/h 41.8 km/h 73 % 0 mm 183 W/m2
13:06 12.8 °C 8.1 °C 1021.6 hPa WNW 22.5 km/h 40.2 km/h 73 % 0 mm 114 W/m2
13:11 12.8 °C 8.1 °C 1021.6 hPa WNW 20.9 km/h 40.2 km/h 73 % 0 mm 206 W/m2
13:16 12.8 °C 8.1 °C 1021.6 hPa WNW 19.3 km/h 35.4 km/h 73 % 0 mm 304 W/m2
13:21 13 °C 8.1 °C 1021.6 hPa WNW 17.7 km/h 35.4 km/h 72 % 0 mm 287 W/m2
13:26 13.1 °C 8.2 °C 1021.6 hPa West 19.3 km/h 35.4 km/h 72 % 0 mm 160 W/m2
13:31 13.2 °C 8.1 °C 1021.6 hPa West 19.3 km/h 32.2 km/h 71 % 0 mm 155 W/m2
13:36 13.2 °C 8.3 °C 1021.6 hPa WNW 17.7 km/h 25.7 km/h 72 % 0 mm 178 W/m2
13:41 13.3 °C 8.2 °C 1021.6 hPa West 17.7 km/h 30.6 km/h 71 % 0 mm 199 W/m2
13:46 13.3 °C 8.3 °C 1021.6 hPa West 19.3 km/h 30.6 km/h 72 % 0 mm 251 W/m2
13:51 13.4 °C 8.4 °C 1021.6 hPa WNW 20.9 km/h 40.2 km/h 72 % 0 mm 200 W/m2
13:56 13.3 °C 7.9 °C 1021.6 hPa WNW 22.5 km/h 41.8 km/h 70 % 0 mm 171 W/m2
14:01 13.3 °C 7.9 °C 1021.6 hPa WNW 20.9 km/h 41.8 km/h 70 % 0 mm 197 W/m2
14:06 13.2 °C 7.8 °C 1021.2 hPa WNW 19.3 km/h 35.4 km/h 70 % 0 mm 236 W/m2
14:11 13.1 °C 7.9 °C 1021.2 hPa West 22.5 km/h 40.2 km/h 71 % 0 mm 241 W/m2
14:16 13 °C 8.1 °C 1021.6 hPa West 24.1 km/h 40.2 km/h 72 % 0 mm 225 W/m2
14:21 12.9 °C 7.9 °C 1021.6 hPa West 20.9 km/h 37 km/h 72 % 0 mm 128 W/m2
14:26 12.8 °C 8.3 °C 1021.6 hPa WNW 20.9 km/h 32.2 km/h 74 % 0 mm 98 W/m2
14:31 12.7 °C 8 °C 1021.6 hPa WNW 22.5 km/h 41.8 km/h 73 % 0 mm 141 W/m2
14:36 12.6 °C 8.1 °C 1021.6 hPa WNW 24.1 km/h 41.8 km/h 74 % 0 mm 214 W/m2
14:41 12.6 °C 8.5 °C 1021.6 hPa WNW 20.9 km/h 37 km/h 76 % 0 mm 244 W/m2
14:46 12.6 °C 8.7 °C 1021.6 hPa WNW 19.3 km/h 32.2 km/h 77 % 0 mm 343 W/m2
14:51 12.8 °C 8.7 °C 1021.6 hPa WNW 16.1 km/h 29 km/h 76 % 0 mm 162 W/m2
14:56 12.8 °C 8.3 °C 1021.6 hPa WNW 17.7 km/h 32.2 km/h 74 % 0 mm 102 W/m2
15:01 12.8 °C 8.3 °C 1021.6 hPa WNW 17.7 km/h 32.2 km/h 74 % 0 mm 77 W/m2
15:06 12.8 °C 8.3 °C 1021.6 hPa WNW 17.7 km/h 37 km/h 74 % 0 mm 46 W/m2
15:11 12.7 °C 8.4 °C 1021.6 hPa WNW 17.7 km/h 37 km/h 75 % 0 mm 67 W/m2
15:16 12.6 °C 8.7 °C 1021.6 hPa WNW 14.5 km/h 25.7 km/h 77 % 0 mm 113 W/m2
15:21 12.4 °C 8.3 °C 1021.6 hPa WNW 17.7 km/h 38.6 km/h 76 % 0 mm 176 W/m2
15:26 12.4 °C 7.9 °C 1021.9 hPa WNW 20.9 km/h 38.6 km/h 74 % 0 mm 162 W/m2
15:31 12.4 °C 7.9 °C 1021.9 hPa WNW 20.9 km/h 35.4 km/h 74 % 0 mm 149 W/m2
15:36 12.6 °C 7.9 °C 1021.9 hPa WNW 20.9 km/h 35.4 km/h 73 % 0 mm 130 W/m2
15:41 12.6 °C 7.9 °C 1021.6 hPa WNW 19.3 km/h 32.2 km/h 73 % 0 mm 144 W/m2
15:46 12.7 °C 8 °C 1021.9 hPa WNW 19.3 km/h 32.2 km/h 73 % 0 mm 151 W/m2
15:51 12.7 °C 8 °C 1021.9 hPa WNW 19.3 km/h 33.8 km/h 73 % 0 mm 165 W/m2
15:57 12.8 °C 7.9 °C 1021.9 hPa WNW 19.3 km/h 33.8 km/h 72 % 0 mm 132 W/m2
16:02 12.8 °C 7.9 °C 1022.2 hPa WNW 19.3 km/h 35.4 km/h 72 % 0 mm 111 W/m2
16:07 12.8 °C 7.9 °C 1022.2 hPa WNW 19.3 km/h 38.6 km/h 72 % 0 mm 91 W/m2
16:12 12.7 °C 7.8 °C 1022.2 hPa WNW 17.7 km/h 38.6 km/h 72 % 0 mm 84 W/m2
16:13 12.7 °C 7.8 °C 1022.2 hPa WNW 17.7 km/h 35.4 km/h 72 % 0 mm 83 W/m2
16:19 12.7 °C 7.8 °C 1022.2 hPa WNW 16.1 km/h 35.4 km/h 72 % 0 mm 93 W/m2
16:24 12.7 °C 7.6 °C 1022.2 hPa WNW 16.1 km/h 30.6 km/h 71 % 0 mm 107 W/m2
16:29 12.7 °C 7.6 °C 1021.9 hPa WNW 17.7 km/h 30.6 km/h 71 % 0 mm 98 W/m2
16:34 12.6 °C 7.5 °C 1021.9 hPa WNW 17.7 km/h 32.2 km/h 71 % 0 mm 107 W/m2
16:39 12.6 °C 7.3 °C 1021.9 hPa WNW 19.3 km/h 33.8 km/h 70 % 0 mm 100 W/m2
16:44 12.6 °C 7.5 °C 1022.2 hPa WNW 19.3 km/h 33.8 km/h 71 % 0 mm 93 W/m2
16:49 12.6 °C 7.5 °C 1021.9 hPa WNW 19.3 km/h 37 km/h 71 % 0 mm 88 W/m2
16:54 12.5 °C 7.4 °C 1021.9 hPa WNW 16.1 km/h 37 km/h 71 % 0 mm 86 W/m2
16:59 12.4 °C 7.1 °C 1021.9 hPa WNW 16.1 km/h 30.6 km/h 70 % 0 mm 76 W/m2
17:04 12.4 °C 6.9 °C 1021.9 hPa WNW 16.1 km/h 30.6 km/h 69 % 0 mm 62 W/m2
17:09 12.3 °C 6.8 °C 1021.9 hPa WNW 16.1 km/h 33.8 km/h 69 % 0 mm 62 W/m2
17:14 12.3 °C 6.6 °C 1021.9 hPa WNW 17.7 km/h 33.8 km/h 68 % 0 mm 56 W/m2
17:19 12.2 °C 6.7 °C 1022.2 hPa WNW 16.1 km/h 29 km/h 69 % 0 mm 53 W/m2
17:24 12.1 °C 6.4 °C 1022.2 hPa WNW 16.1 km/h 29 km/h 68 % 0 mm 46 W/m2
17:29 12.1 °C 6.4 °C 1021.9 hPa WNW 17.7 km/h 30.6 km/h 68 % 0 mm 37 W/m2
17:34 12 °C 6.3 °C 1021.9 hPa WNW 16.1 km/h 30.6 km/h 68 % 0 mm 33 W/m2
17:39 11.9 °C 6.2 °C 1021.9 hPa WNW 14.5 km/h 24.1 km/h 68 % 0 mm 28 W/m2
17:44 11.9 °C 6.4 °C 1021.9 hPa WNW 14.5 km/h 30.6 km/h 69 % 0 mm 26 W/m2
17:49 11.8 °C 6.3 °C 1021.9 hPa WNW 16.1 km/h 30.6 km/h 69 % 0 mm 21 W/m2
17:54 11.8 °C 6.5 °C 1021.9 hPa WNW 14.5 km/h 29 km/h 70 % 0 mm 16 W/m2
17:59 11.7 °C 6.4 °C 1021.9 hPa WNW 12.9 km/h 22.5 km/h 70 % 0 mm 12 W/m2
18:04 11.7 °C 6.4 °C 1021.9 hPa WNW 12.9 km/h 22.5 km/h 70 % 0 mm 9 W/m2
18:09 11.7 °C 6.6 °C 1021.9 hPa WNW 11.3 km/h 22.5 km/h 71 % 0 mm 7 W/m2
18:14 11.6 °C 6.5 °C 1021.9 hPa WNW 11.3 km/h 20.9 km/h 71 % 0 mm 7 W/m2
18:19 11.6 °C 6.5 °C 1022.2 hPa WNW 9.7 km/h 20.9 km/h 71 % 0 mm 5 W/m2
18:24 11.6 °C 6.5 °C 1022.2 hPa West 8 km/h 14.5 km/h 71 % 0 mm 0 W/m2
18:29 11.5 °C 6.4 °C 1022.2 hPa West 8 km/h 14.5 km/h 71 % 0 mm 0 W/m2
18:34 11.4 °C 6.3 °C 1021.9 hPa West 9.7 km/h 22.5 km/h 71 % 0 mm 0 W/m2
18:39 11.4 °C 6.3 °C 1021.9 hPa West 12.9 km/h 25.7 km/h 71 % 0 mm 0 W/m2
18:44 11.5 °C 6.6 °C 1021.9 hPa West 12.9 km/h 25.7 km/h 72 % 0 mm 5 W/m2
18:49 11.4 °C 6.6 °C 1021.9 hPa West 11.3 km/h 22.5 km/h 72 % 0 mm 0 W/m2
18:54 11.4 °C 6.7 °C 1021.9 hPa West 11.3 km/h 17.7 km/h 73 % 0 mm 0 W/m2
18:59 11.4 °C 6.7 °C 1021.9 hPa West 9.7 km/h 17.7 km/h 73 % 0 mm 0 W/m2
19:04 11.4 °C 6.7 °C 1021.9 hPa West 8 km/h 16.1 km/h 73 % 0 mm 0 W/m2
19:09 11.3 °C 6.6 °C 1021.9 hPa WNW 6.4 km/h 12.9 km/h 73 % 0 mm 0 W/m2
19:14 11.3 °C 6.8 °C 1021.9 hPa WNW 6.4 km/h 12.9 km/h 74 % 0 mm 0 W/m2
19:19 11.3 °C 6.8 °C 1021.9 hPa WNW 4.8 km/h 12.9 km/h 74 % 0 mm 0 W/m2
19:24 11.2 °C 6.7 °C 1021.9 hPa West 4.8 km/h 16.1 km/h 74 % 0 mm 0 W/m2
19:29 11.2 °C 6.9 °C 1021.9 hPa West 6.4 km/h 19.3 km/h 75 % 0 mm 0 W/m2
19:31 11.2 °C 6.9 °C 1021.9 hPa West 8 km/h 19.3 km/h 75 % 0 mm 0 W/m2
19:36 11.2 °C 6.9 °C 1022.2 hPa West 11.3 km/h 19.3 km/h 75 % 0 mm 0 W/m2
19:41 11.2 °C 6.9 °C 1021.9 hPa West 9.7 km/h 16.1 km/h 75 % 0 mm 0 W/m2
19:46 11.2 °C 6.9 °C 1021.9 hPa West 9.7 km/h 19.3 km/h 75 % 0 mm 0 W/m2
19:51 11.2 °C 7.1 °C 1021.9 hPa West 9.7 km/h 19.3 km/h 76 % 0 mm 0 W/m2
19:52 11.2 °C 7.1 °C 1021.9 hPa West 8 km/h 14.5 km/h 76 % 0 mm 0 W/m2
19:58 11.2 °C 7.1 °C 1021.9 hPa West 9.7 km/h 16.1 km/h 76 % 0 mm 0 W/m2
20:03 11.3 °C 7.4 °C 1021.9 hPa West 11.3 km/h 16.1 km/h 77 % 0 mm 0 W/m2
20:08 11.3 °C 7.4 °C 1021.9 hPa West 9.7 km/h 16.1 km/h 77 % 0 mm 0 W/m2
20:13 11.3 °C 7.4 °C 1021.9 hPa West 8 km/h 16.1 km/h 77 % 0 mm 0 W/m2
20:18 11.3 °C 7.4 °C 1021.9 hPa West 9.7 km/h 20.9 km/h 77 % 0 mm 0 W/m2
20:28 11.4 °C 7.7 °C 1021.9 hPa West 9.7 km/h 19.3 km/h 78 % 0 mm 0 W/m2
20:33 11.4 °C 7.7 °C 1021.9 hPa West 9.7 km/h 16.1 km/h 78 % 0 mm 0 W/m2
20:38 11.4 °C 7.7 °C 1021.9 hPa West 11.3 km/h 24.1 km/h 78 % 0 mm 0 W/m2
20:43 11.3 °C 7.6 °C 1021.9 hPa West 12.9 km/h 24.1 km/h 78 % 0 mm 0 W/m2
20:48 11.3 °C 7.6 °C 1021.9 hPa West 14.5 km/h 29 km/h 78 % 0 mm 0 W/m2
20:53 11.3 °C 7.6 °C 1021.9 hPa West 14.5 km/h 29 km/h 78 % 0 mm 0 W/m2
20:58 11.3 °C 7.6 °C 1021.9 hPa West 14.5 km/h 24.1 km/h 78 % 0 mm 0 W/m2
21:03 11.3 °C 7.6 °C 1021.9 hPa West 14.5 km/h 24.1 km/h 78 % 0 mm 0 W/m2
21:08 11.3 °C 7.8 °C 1021.9 hPa West 12.9 km/h 24.1 km/h 79 % 0 mm 0 W/m2
21:13 11.3 °C 7.8 °C 1021.9 hPa WSW 11.3 km/h 22.5 km/h 79 % 0 mm 0 W/m2
21:18 11.3 °C 7.8 °C 1021.9 hPa WSW 8 km/h 17.7 km/h 79 % 0 mm 0 W/m2
21:23 11.3 °C 8 °C 1022.2 hPa WSW 6.4 km/h 14.5 km/h 80 % 0 mm 0 W/m2
21:28 11.3 °C 8 °C 1021.9 hPa WSW 6.4 km/h 14.5 km/h 80 % 0 mm 0 W/m2
21:33 11.3 °C 8 °C 1021.9 hPa WSW 6.4 km/h 14.5 km/h 80 % 0 mm 0 W/m2
21:38 11.3 °C 8 °C 1021.9 hPa WSW 8 km/h 19.3 km/h 80 % 0 mm 0 W/m2
21:43 11.4 °C 8.1 °C 1021.9 hPa WSW 9.7 km/h 19.3 km/h 80 % 0 mm 0 W/m2
21:48 11.4 °C 8.1 °C 1021.9 hPa West 11.3 km/h 24.1 km/h 80 % 0 mm 0 W/m2
21:53 11.4 °C 8.1 °C 1021.6 hPa WSW 12.9 km/h 24.1 km/h 80 % 0 mm 0 W/m2
21:58 11.4 °C 8.1 °C 1021.6 hPa WSW 12.9 km/h 24.1 km/h 80 % 0 mm 0 W/m2
22:03 11.4 °C 8.1 °C 1021.6 hPa WSW 12.9 km/h 24.1 km/h 80 % 0 mm 0 W/m2
22:08 11.4 °C 8.3 °C 1021.6 hPa WSW 12.9 km/h 22.5 km/h 81 % 0 mm 0 W/m2
22:13 11.4 °C 8.3 °C 1021.6 hPa WSW 14.5 km/h 24.1 km/h 81 % 0 mm 0 W/m2
22:19 11.4 °C 8.1 °C 1021.6 hPa WSW 16.1 km/h 25.7 km/h 80 % 0 mm 0 W/m2
22:20 11.4 °C 8.1 °C 1021.6 hPa WSW 16.1 km/h 25.7 km/h 80 % 0 mm 0 W/m2
22:25 11.4 °C 8.1 °C 1021.6 hPa WSW 16.1 km/h 29 km/h 80 % 0 mm 0 W/m2
22:35 11.5 °C 8.2 °C 1021.6 hPa WSW 14.5 km/h 22.5 km/h 80 % 0 mm 0 W/m2
22:40 11.5 °C 8.2 °C 1021.6 hPa WSW 14.5 km/h 32.2 km/h 80 % 0 mm 0 W/m2
22:45 11.6 °C 8.3 °C 1021.6 hPa West 16.1 km/h 32.2 km/h 80 % 0 mm 0 W/m2
22:50 11.6 °C 8.3 °C 1021.2 hPa WSW 17.7 km/h 32.2 km/h 80 % 0 mm 0 W/m2
22:55 11.6 °C 8.3 °C 1021.2 hPa West 17.7 km/h 32.2 km/h 80 % 0 mm 0 W/m2
23:00 11.5 °C 8.2 °C 1021.2 hPa West 16.1 km/h 30.6 km/h 80 % 0 mm 0 W/m2
23:05 11.5 °C 8.2 °C 1021.2 hPa West 16.1 km/h 24.1 km/h 80 % 0 mm 0 W/m2
23:10 11.4 °C 8.1 °C 1021.2 hPa West 14.5 km/h 24.1 km/h 80 % 0 mm 0 W/m2
23:15 11.4 °C 8.1 °C 1021.2 hPa West 14.5 km/h 24.1 km/h 80 % 0 mm 0 W/m2
23:20 11.4 °C 8.1 °C 1021.2 hPa West 16.1 km/h 30.6 km/h 80 % 0 mm 0 W/m2
23:25 11.3 °C 8 °C 1021.2 hPa West 14.5 km/h 30.6 km/h 80 % 0 mm 0 W/m2
23:30 11.3 °C 8 °C 1021.2 hPa West 12.9 km/h 22.5 km/h 80 % 0 mm 0 W/m2
23:35 11.3 °C 8 °C 1021.6 hPa West 12.9 km/h 22.5 km/h 80 % 0 mm 0 W/m2
23:40 11.3 °C 8 °C 1021.2 hPa West 12.9 km/h 22.5 km/h 80 % 0 mm 0 W/m2
23:45 11.3 °C 8 °C 1021.2 hPa West 14.5 km/h 30.6 km/h 80 % 0 mm 0 W/m2
23:50 11.3 °C 8 °C 1021.2 hPa West 16.1 km/h 30.6 km/h 80 % 0 mm 0 W/m2
23:55 11.2 °C 7.9 °C 1021.2 hPa West 14.5 km/h 29 km/h 80 % 0 mm 0 W/m2
Delerius-Weather
Compliments of Weather Underground - 2.25 mb

Data updates at regular intervals.